Wind_Speed
6 4 7 11 9 2 4 4 3 3 1 3 6 10 15 19 16 21 26 21 22 26 26 19 19 20 22 22 21 20 18 17 13 10 8 6 5 5 5 3 3 3 4 5
4 9 9 4 4 3 2 3 4 4 1 3 5 13 13 8 10 16 19 18 19 21 20 22 23 23 23 22 22 20 18 15 13 12 9 6 4 5 3 2 2 2 3 3
7 4 9 8 5 5 3 5 3 4 3 1 6 8 5 3 4 7 9 10 11 13 18 23 25 24 24 23 22 21 19 16 14 12 9 6 4 4 3 1 1 1 1 1
6 6 6 6 6 8 6 8 7 4 1 4 2 5 6 3 6 5 8 7 9 13 18 22 25 26 25 23 23 22 20 17 14 12 9 6 4 4 3 2 1 0 0 0
8 10 7 6 7 9 5 3 7 2 1 4 1 2 7 1 6 8 9 11 12 16 19 24 24 24 24 24 24 23 20 18 15 12 9 6 5 4 3 3 2 2 1 1
4 1 4 7 4 12 8 6 6 4 3 2 7 7 5 5 8 3 5 16 17 19 21 22 23 24 25 25 24 23 20 18 15 12 9 6 4 4 4 4 3 3 2 2
3 4 3 4 7 3 3 6 2 3 2 6 3 2 7 7 5 4 8 21 21 21 23 25 26 27 26 25 25 23 20 18 16 12 9 6 5 4 5 4 4 3 3 3
10 5 11 6 6 9 7 8 6 7 4 3 2 7 6 4 8 6 9 20 21 22 22 24 25 25 25 24 23 22 20 19 16 12 9 7 5 5 5 5 4 4 4 4
9 7 3 2 5 10 6 7 6 7 2 2 5 7 10 6 5 6 10 18 23 23 24 24 24 24 24 24 23 21 20 18 16 13 10 7 5 5 6 6 5 4 4 4
8 3 2 1 1 4 5 8 4 2 3 4 4 5 6 5 10 7 8 16 21 21 22 23 23 24 24 23 21 21 20 17 15 13 11 8 6 6 6 6 5 4 4 5
6 4 1 3 6 11 4 3 2 4 5 5 1 6 8 10 8 14 10 21 22 22 22 22 22 22 23 23 23 22 21 20 17 14 12 9 7 7 7 7 6 5 5 6
6 5 4 6 3 2 2 3 7 5 7 2 3 7 1 5 5 11 15 18 19 19 20 20 21 22 24 24 23 23 21 20 17 15 13 11 10 8 7 8 8 7 6 6
15 5 4 3 3 2 6 9 10 3 3 9 7 11 1 3 4 11 18 20 19 20 20 21 23 23 23 24 23 22 20 18 18 17 15 14 12 9 8 9 10 9 8 6
23 3 16 16 8 9 9 9 9 10 11 11 9 11 4 5 7 7 18 21 20 20 22 22 23 23 23 23 23 23 22 20 20 19 18 15 13 11 10 10 10 10 10 8
12 16 11 4 4 5 8 19 17 14 23 14 18 10 7 9 11 10 20 20 19 20 21 23 23 22 22 23 23 22 22 22 21 20 18 16 15 14 13 12 10 12 12 10
6 4 4 7 3 5 2 11 19 24 21 21 5 7 8 2 12 15 22 24 25 24 23 22 21 21 20 20 19 19 19 19 20 19 17 18 18 17 15 13 11 12 13 12
11 6 4 10 7 8 3 18 19 15 18 24 10 31 8 6 10 21 31 33 31 27 25 23 21 19 18 17 17 17 17 18 19 19 18 19 19 18 17 15 14 12 13 14
18 15 3 4 9 10 11 12 18 23 17 24 27 7 15 12 27 28 32 37 31 28 24 21 19 17 16 15 14 14 15 16 16 16 18 19 19 18 17 16 14 12 12 13
20 13 4 6 9 2 2 7 12 15 21 22 30 25 9 13 15 11 31 34 33 28 22 19 17 15 14 13 12 12 12 13 14 15 16 17 17 16 16 16 13 11 11 12
20 18 10 4 6 14 10 7 17 8 13 19 28 24 12 22 13 10 32 34 32 27 23 21 17 15 14 13 11 9 8 9 10 12 14 14 14 14 14 13 12 11 11 12
17 17 18 9 3 7 6 10 28 9 13 11 32 31 27 18 24 24 37 38 33 30 28 23 20 17 16 15 13 12 12 11 11 11 11 11 12 12 12 12 12 11 10 11
11 15 11 6 5 6 12 17 19 9 3 3 23 33 43 38 31 31 42 45 39 35 32 27 26 24 23 21 18 20 18 17 14 11 10 9 10 10 10 10 10 10 9 10
5 4 4 11 8 3 38 8 17 2 3 6 17 27 32 32 31 39 48 47 44 39 36 32 30 31 29 26 24 25 26 23 20 16 13 9 7 7 7 8 9 10 9 9
5 3 3 3 7 6 29 11 31 6 5 6 11 26 34 36 38 41 49 47 43 40 39 36 35 34 32 28 25 25 25 21 18 17 15 13 10 6 4 6 7 8 9 10
2 3 2 5 2 4 9 26 9 18 6 10 15 27 35 39 40 49 52 49 46 44 41 38 37 35 32 28 25 24 21 18 15 13 11 9 7 6 4 2 3 7 9 10
3 3 3 3 3 4 7 26 29 23 18 20 26 30 34 43 48 50 50 51 51 48 44 40 36 34 31 26 24 21 18 16 14 11 8 5 2 2 2 1 1 3 6 9
Wind_Direction
181 157 203 211 206 112 141 189 242 238 253 237 234 269 273 280 271 266 266 257 248 243 247 242 212 199 196 198 198 198 201 203 207 211 217 234 263 295 309 331 339 350 4 23
99 234 199 163 191 202 150 171 238 271 215 202 318 282 262 246 249 249 262 257 247 241 233 211 198 193 194 196 193 196 198 203 205 208 213 225 255 284 278 301 317 344 7 42
171 198 182 155 162 196 242 213 239 234 335 219 325 286 286 268 241 226 242 250 237 219 198 190 187 186 186 189 191 193 194 200 205 209 210 220 246 265 244 249 285 335 8 37
251 193 135 167 184 148 233 206 213 230 58 242 1 282 293 259 269 226 224 212 199 187 183 183 181 181 181 182 184 186 190 197 203 207 208 219 240 250 219 205 227 221 4 101
232 176 157 177 194 164 222 139 179 157 205 355 254 291 268 299 271 232 211 199 186 180 180 178 177 178 175 179 181 184 191 196 198 201 208 219 235 229 208 191 180 165 164 160
244 250 188 195 143 168 155 87 58 65 89 292 199 188 255 197 215 208 188 193 184 178 176 175 174 176 177 179 183 187 192 196 194 196 205 218 230 220 200 189 177 170 174 180
160 211 204 170 94 65 126 116 5 356 9 228 344 272 261 260 229 219 194 190 187 183 181 180 180 180 184 186 186 190 193 194 193 194 200 211 219 211 206 193 181 179 168 184
181 250 169 182 182 169 187 166 163 195 201 233 63 229 244 239 240 198 189 191 188 189 189 189 189 189 190 190 192 194 193 192 195 195 197 206 209 207 207 204 193 188 175 189
171 235 21 268 159 143 195 210 156 107 55 53 214 284 288 221 231 200 173 178 188 192 193 195 195 194 194 194 195 195 193 192 196 197 198 200 204 207 207 206 202 207 175 192
192 113 354 142 8 357 167 158 94 13 153 247 265 280 247 251 223 200 200 196 191 190 193 195 198 196 194 195 196 195 195 197 200 200 200 198 201 207 207 205 201 212 186 189
148 121 5 127 214 175 151 183 175 137 162 184 227 255 218 225 201 198 200 197 192 191 192 193 195 195 195 196 196 196 198 199 201 201 202 200 204 210 204 203 204 201 197 185
185 112 148 189 272 308 16 185 176 174 217 244 144 262 294 269 265 189 189 191 187 190 190 191 193 194 196 197 198 200 201 203 204 206 206 204 206 214 208 204 207 198 201 198
179 183 112 70 338 231 209 193 184 108 85 196 162 249 6 304 242 204 173 178 182 186 187 188 191 194 196 198 201 203 206 206 209 212 212 213 212 212 215 211 210 206 204 203
169 140 201 199 190 134 201 196 204 203 214 215 223 237 251 220 213 198 183 179 179 182 185 187 190 194 196 199 202 204 208 211 214 217 218 220 219 217 219 219 214 212 212 210
173 210 203 212 136 168 190 195 191 201 218 206 237 220 220 215 210 198 182 179 177 178 181 186 189 192 196 199 202 205 208 213 217 220 222 223 223 223 222 222 219 217 216 214
184 232 128 213 87 94 116 192 196 209 221 228 169 267 224 171 157 186 195 185 187 184 177 176 181 187 191 195 200 204 210 217 223 226 226 225 226 226 225 224 223 220 220 219
177 140 143 221 129 90 290 209 190 210 217 221 211 230 161 194 191 189 199 198 192 187 179 177 178 180 185 188 195 201 207 214 220 221 221 224 225 225 223 221 224 222 220 222
186 182 163 145 132 211 238 167 188 203 214 221 239 194 210 196 211 210 204 196 190 189 183 180 180 181 185 189 196 205 212 217 219 219 218 219 219 220 220 220 219 219 223 226
185 173 143 163 195 313 180 198 179 181 238 220 228 230 221 190 169 210 206 202 189 184 179 180 177 177 178 180 184 192 199 206 209 211 211 212 214 217 219 219 219 220 223 225
188 193 187 163 161 207 228 171 147 98 269 214 216 220 168 147 207 211 194 195 188 180 176 176 170 166 161 158 155 155 160 172 182 190 194 197 201 207 211 214 215 217 221 221
189 189 198 192 190 266 218 148 140 142 245 188 200 203 176 193 211 195 188 187 185 174 169 165 156 148 144 141 138 139 135 138 146 160 173 182 192 200 205 206 209 216 220 223
201 189 191 161 158 244 162 149 172 214 66 195 201 199 194 199 193 193 185 177 173 169 163 158 152 145 135 125 127 122 121 117 121 133 150 165 181 191 197 203 208 215 219 222
235 254 193 194 188 175 170 194 185 163 207 222 206 201 194 184 178 178 177 171 168 165 159 156 153 142 131 126 124 118 107 102 99 100 105 121 146 171 187 199 207 216 221 220
237 114 258 123 203 195 197 202 201 200 237 244 208 187 184 174 170 162 166 165 161 159 155 152 147 139 131 127 120 110 103 98 94 91 89 88 89 99 152 201 212 221 227 218
118 101 227 257 47 91 208 209 202 210 233 199 179 185 179 172 164 168 164 161 158 156 152 150 145 137 130 126 117 109 103 97 89 80 75 71 70 73 82 106 226 231 230 224
138 242 258 253 186 151 201 203 211 212 202 185 172 168 176 175 166 164 159 160 157 153 151 148 142 136 129 124 116 107 98 88 76 65 63 59 38 342 340 334 292 250 245 239
Height
1496 1502 1506 1501 1497 1496 1498 1501 1500 1496 1494 1495 1493 1488 1479 1474 1474 1472 1470 1471 1472 1474 1476 1478 1480 1483 1487 1492 1496 1499 1503 1506 1507 1508 1510 1512 1514 1514 1513 1513 1513 1513 1512 1512
1499 1498 1494 1497 1500 1499 1498 1499 1498 1495 1493 1495 1491 1484 1473 1468 1464 1463 1464 1464 1465 1466 1467 1471 1475 1478 1483 1489 1493 1497 1501 1504 1506 1507 1509 1510 1511 1512 1512 1511 1511 1512 1512 1511
1490 1484 1486 1491 1498 1502 1502 1502 1498 1495 1493 1494 1495 1482 1468 1461 1460 1460 1460 1460 1460 1460 1462 1467 1471 1476 1480 1486 1490 1495 1499 1503 1505 1506 1507 1508 1509 1510 1511 1511 1511 1511 1511 1512
1489 1480 1487 1492 1492 1498 1504 1496 1496 1495 1498 1504 1496 1496 1471 1460 1459 1458 1459 1458 1458 1459 1461 1466 1469 1473 1477 1483 1488 1492 1496 1499 1503 1505 1506 1507 1507 1508 1509 1510 1510 1510 1511 1512
1479 1482 1482 1487 1483 1488 1493 1492 1495 1495 1499 1501 1499 1502 1472 1463 1458 1453 1454 1455 1456 1457 1459 1462 1467 1473 1477 1482 1486 1490 1494 1497 1500 1503 1506 1506 1506 1507 1508 1509 1508 1509 1510 1511
1477 1476 1476 1474 1478 1480 1490 1494 1499 1505 1508 1527 1497 1495 1475 1460 1451 1446 1448 1451 1454 1456 1459 1463 1467 1471 1475 1480 1484 1488 1492 1495 1497 1500 1503 1505 1505 1506 1506 1508 1508 1508 1509 1511
1474 1474 1472 1473 1478 1484 1483 1492 1526 1524 1537 1510 1502 1497 1458 1448 1443 1444 1446 1448 1452 1456 1458 1461 1464 1468 1473 1478 1482 1485 1489 1493 1495 1497 1500 1503 1504 1505 1506 1507 1507 1508 1508 1510
1466 1477 1467 1465 1465 1472 1483 1480 1498 1502 1512 1494 1501 1482 1455 1443 1440 1440 1442 1446 1451 1454 1458 1460 1463 1467 1472 1476 1481 1485 1488 1491 1495 1496 1498 1500 1502 1503 1504 1506 1506 1506 1507 1508
1456 1457 1456 1458 1457 1460 1478 1480 1475 1500 1535 1511 1484 1469 1446 1441 1440 1440 1441 1443 1446 1450 1454 1459 1463 1466 1470 1474 1479 1483 1486 1489 1493 1494 1496 1499 1500 1501 1503 1504 1506 1506 1506 1507
1438 1453 1460 1458 1460 1460 1459 1463 1479 1492 1504 1501 1484 1474 1450 1437 1435 1439 1439 1440 1444 1447 1451 1456 1460 1464 1467 1472 1477 1481 1484 1487 1490 1492 1494 1497 1498 1499 1501 1503 1504 1505 1505 1506
1432 1436 1464 1460 1459 1456 1463 1465 1461 1465 1473 1478 1493 1457 1435 1426 1427 1430 1433 1436 1440 1444 1447 1452 1457 1462 1465 1469 1473 1477 1481 1484 1487 1489 1492 1494 1496 1498 1499 1500 1503 1503 1504 1505
1425 1436 1461 1454 1455 1454 1452 1446 1447 1451 1470 1485 1476 1454 1428 1429 1427 1427 1430 1434 1438 1442 1445 1449 1454 1458 1461 1466 1470 1474 1478 1481 1485 1487 1489 1491 1493 1496 1497 1498 1499 1501 1503 1504
1412 1427 1452 1454 1455 1455 1450 1443 1440 1446 1452 1463 1463 1428 1427 1427 1427 1426 1427 1431 1435 1439 1443 1446 1450 1453 1458 1462 1467 1471 1476 1479 1482 1485 1487 1488 1490 1493 1496 1497 1497 1498 1500 1502
1403 1421 1402 1402 1405 1423 1442 1437 1437 1433 1437 1433 1441 1422 1424 1426 1427 1426 1427 1429 1433 1436 1439 1443 1446 1450 1453 1458 1462 1466 1471 1475 1478 1480 1483 1485 1488 1490 1492 1495 1495 1496 1498 1500
1400 1400 1410 1417 1410 1411 1413 1421 1432 1435 1422 1431 1411 1430 1423 1422 1421 1422 1425 1429 1432 1434 1435 1438 1442 1447 1450 1454 1458 1461 1466 1470 1473 1476 1479 1482 1484 1488 1489 1491 1492 1493 1495 1497
1394 1406 1409 1416 1417 1415 1419 1415 1422 1419 1416 1419 1430 1427 1416 1416 1417 1423 1423 1425 1428 1430 1432 1435 1439 1443 1447 1451 1455 1458 1462 1465 1469 1472 1475 1477 1480 1483 1487 1488 1489 1490 1492 1494
1390 1398 1405 1396 1417 1413 1417 1404 1411 1413 1414 1407 1423 1377 1407 1413 1411 1412 1416 1418 1421 1427 1430 1433 1437 1441 1445 1448 1451 1455 1458 1460 1463 1466 1469 1472 1475 1479 1482 1484 1485 1487 1488 1491
1373 1384 1392 1407 1405 1399 1379 1383 1391 1397 1395 1398 1391 1390 1395 1398 1400 1401 1407 1411 1417 1425 1428 1432 1436 1439 1442 1445 1448 1451 1454 1456 1459 1461 1464 1468 1472 1475 1478 1481 1482 1484 1486 1488
1356 1369 1390 1390 1390 1388 1382 1382 1384 1388 1380 1382 1378 1381 1388 1393 1398 1399 1401 1409 1413 1419 1425 1431 1434 1437 1440 1442 1445 1448 1450 1452 1454 1457 1460 1465 1468 1472 1475 1477 1479 1481 1484 1486
1353 1356 1364 1386 1388 1373 1360 1367 1369 1381 1381 1353 1361 1368 1381 1388 1395 1385 1394 1405 1411 1416 1421 1427 1431 1435 1438 1440 1442 1445 1447 1449 1451 1455 1458 1461 1465 1469 1472 1475 1476 1477 1480 1483
1346 1353 1355 1370 1381 1375 1351 1359 1366 1383 1349 1335 1341 1355 1368 1367 1360 1379 1387 1398 1407 1411 1418 1425 1429 1433 1437 1439 1441 1444 1446 1448 1451 1454 1457 1460 1463 1467 1469 1471 1473 1475 1477 1479
1336 1337 1343 1361 1373 1367 1342 1356 1351 1332 1331 1333 1336 1343 1346 1349 1361 1371 1380 1389 1399 1408 1415 1422 1427 1431 1437 1440 1443 1444 1447 1448 1451 1454 1456 1458 1462 1465 1467 1469 1471 1473 1475 1477
1343 1332 1336 1329 1328 1326 1327 1323 1326 1329 1332 1333 1332 1337 1346 1352 1358 1365 1376 1387 1394 1404 1412 1421 1426 1431 1436 1441 1445 1446 1448 1450 1453 1455 1457 1459 1461 1463 1465 1467 1469 1472 1473 1475
1331 1329 1335 1326 1321 1321 1322 1322 1323 1327 1331 1330 1331 1334 1343 1348 1356 1366 1375 1387 1396 1405 1412 1420 1425 1431 1435 1441 1445 1447 1450 1453 1456 1458 1459 1460 1461 1462 1464 1465 1467 1469 1471 1472
1326 1329 1335 1326 1317 1319 1321 1320 1321 1325 1329 1329 1331 1334 1341 1347 1357 1362 1373 1386 1397 1404 1413 1420 1426 1431 1436 1442 1445 1448 1452 1455 1457 1459 1460 1461 1461 1463 1464 1465 1466 1467 1468 1469
1324 1328 1331 1318 1311 1311 1311 1310 1320 1325 1326 1328 1328 1335 1341 1345 1351 1364 1376 1386 1394 1402 1411 1420 1426 1431 1436 1442 1446 1449 1453 1455 1457 1458 1460 1460 1461 1462 1463 1464 1465 1465 1466 1466